COSMOS 1275 DEB, 42178

Orbit data source: Space-Track

COSMOS 1275 DEB, 42178 is space debris in LEO originally from a launch on Thu, 04 Jun 1981 UTC launched from the Plesetsk Missile And Space Complex (PKMTR). Debris objects in space refer to the collection of defunct objects orbiting the Earth. Examples of debris include non-operational satellites, rocket bodies, and fragments generated from explosions, collisions, or faulty payload assembly.

Loading next visibility...
Identifier
42178, 1981-053SS
Orbit
LEO
Country
Flag of CISCIS
Related business
Manufacturer
Unknown
Mission
Spacecraft
Bus & Motor
Unknown
Mass
Unknown
Launch date (UTC)
1981-06-04 (45 years ago)
Launch vehicle
Unknown
Launch site
Plesetsk Missile And Space Complex (PKMTR)
Object type
Payload
Rocket body
Debris
Shape & HBR
Unknown shape, 0.1 m
Radar Cross Section
Small (<0.1 m²)

Expand to show TLE details & history
Last TLE update: 11 hours ago

TLE from 11 hours ago
0 COSMOS 1275 DEB
1 42178U 81053SS  26255.00969564  .00001987  00000-0  76212-3 0  9994
2 42178  82.9418 354.1631 0010728  65.0435 295.1865 14.30093003643361
Epoch: 2026-09-12T00:13Z
TLE epoch observation values (Epoch: 2026-09-12T00:13:57.703Z)
Latitude
-0.00002°
Longitude
-0.35218°
Altitude
791.129 km
Speed
7.46 km/s
True Right ascension
23h 36m 39s
True Declination
0° 00' 00"
Sunlit
Object was in full shadow at epoch
Visualization orbit readout
Latitude
Unknown
Longitude
Unknown
Altitude
Unknown
Speed
Unknown
Apparent Right ascension
Unknown
Apparent Declination
Unknown
Sunlit
N/A
Visualization observer readout
Local Sidereal Time
03:49:35
Azimuth
Unknown
Elevation
Unknown
Doppler factor
Unknown
Orbital elements
Apogee altitude
796.181 km
Perigee altitude
780.805 km
Semi-major axis
7,166.63 km
Eccentricity
0.00107
Inclination
82.9418°
RAAN
354.1631°
Arg. of periapsis
65.0435°
True anomaly
295.07519°
Mean anomaly
295.1865°
Eccentric anomaly
295.13085°
Mean motion
3.57743 °/min
Orbital period
100.63 mins
BSTAR
0.00076212
Loading maneuver chart data...
Computing Atmospheric mass density...
Loading historical data...
Loading historical data...
Loading historical data...
Loading historical data...
Loading historical data...
Loading historical data...
Loading historical data...

Documentation

Showing up to 5 results
|